Time,TemperatureF,DewpointF,PressureIn,WindDirection,WindDirectionDegrees,WindSpeedMPH,WindSpeedGustMPH,Humidity,HourlyPrecipIn,Conditions,Clouds,dailyrainin,SolarRadiationWatts/m^2,SoftwareType,DateUTC
2013-05-04 00:10:00,49.4,47.0,29.86,West,271,0.0,3.0,92,0.00,,,0.00,0,weatherlink.com 1.10,2013-05-04 07:10:00,
2013-05-04 00:25:00,48.8,47.0,29.86,West,271,0.0,2.0,92,0.00,,,0.00,0,weatherlink.com 1.10,2013-05-04 07:25:00,
2013-05-04 00:40:00,49.1,47.0,29.85,West,271,1.0,3.0,92,0.00,,,0.00,0,weatherlink.com 1.10,2013-05-04 07:40:00,
2013-05-04 00:55:00,48.7,47.0,29.85,West,271,1.0,2.0,92,0.00,,,0.00,0,weatherlink.com 1.10,2013-05-04 07:55:00,
2013-05-04 01:10:00,48.5,46.0,29.84,West,271,1.0,2.0,92,0.00,,,0.00,0,weatherlink.com 1.10,2013-05-04 08:10:00,
2013-05-04 01:25:00,48.6,46.0,29.84,West,271,0.0,2.0,92,0.00,,,0.00,0,weatherlink.com 1.10,2013-05-04 08:25:00,
2013-05-04 01:40:00,47.8,46.0,29.83,West,271,0.0,1.0,92,0.00,,,0.00,0,weatherlink.com 1.10,2013-05-04 08:40:00,
2013-05-04 01:55:00,47.9,46.0,29.83,West,271,0.0,2.0,92,0.00,,,0.00,0,weatherlink.com 1.10,2013-05-04 08:55:00,
2013-05-04 02:10:00,47.4,46.0,29.82,West,271,1.0,2.0,93,0.00,,,0.00,0,weatherlink.com 1.10,2013-05-04 09:10:00,
2013-05-04 02:25:00,47.0,45.0,29.82,West,271,0.0,2.0,93,0.00,,,0.00,0,weatherlink.com 1.10,2013-05-04 09:25:00,
2013-05-04 02:40:00,47.0,45.0,29.81,West,271,0.0,2.0,93,0.00,,,0.00,0,weatherlink.com 1.10,2013-05-04 09:40:00,
2013-05-04 02:56:00,47.0,45.0,29.80,West,271,1.0,4.0,93,0.00,,,0.00,0,weatherlink.com 1.10,2013-05-04 09:56:00,
2013-05-04 03:11:00,47.4,46.0,29.80,West,271,1.0,3.0,94,0.00,,,0.00,0,weatherlink.com 1.10,2013-05-04 10:11:00,
2013-05-04 03:26:00,46.7,45.0,29.80,West,271,0.0,4.0,93,0.00,,,0.00,0,weatherlink.com 1.10,2013-05-04 10:26:00,
2013-05-04 03:41:00,46.3,44.0,29.79,West,271,0.0,1.0,93,0.00,,,0.00,0,weatherlink.com 1.10,2013-05-04 10:41:00,
2013-05-04 03:56:00,46.8,45.0,29.79,West,271,1.0,3.0,94,0.00,,,0.00,0,weatherlink.com 1.10,2013-05-04 10:56:00,
2013-05-04 04:11:00,46.7,45.0,29.79,West,271,0.0,2.0,94,0.00,,,0.00,0,weatherlink.com 1.10,2013-05-04 11:11:00,
2013-05-04 04:26:00,46.4,45.0,29.79,West,271,0.0,3.0,94,0.00,,,0.00,0,weatherlink.com 1.10,2013-05-04 11:26:00,
2013-05-04 04:41:00,46.4,45.0,29.79,West,271,0.0,2.0,94,0.00,,,0.00,0,weatherlink.com 1.10,2013-05-04 11:41:00,
2013-05-04 04:56:00,46.3,45.0,29.78,West,271,1.0,3.0,94,0.00,,,0.00,0,weatherlink.com 1.10,2013-05-04 11:56:00,
2013-05-04 05:11:00,46.3,44.0,29.78,West,271,2.0,2.0,93,0.00,,,0.00,0,weatherlink.com 1.10,2013-05-04 12:11:00,
2013-05-04 05:41:00,46.0,44.0,29.77,West,271,0.0,2.0,93,0.00,,,0.00,0,weatherlink.com 1.10,2013-05-04 12:41:00,
2013-05-04 05:56:00,45.8,44.0,29.77,West,271,0.0,1.0,93,0.00,,,0.00,0,weatherlink.com 1.10,2013-05-04 12:56:00,
2013-05-04 06:11:00,45.3,43.0,29.77,West,271,0.0,1.0,93,0.00,,,0.00,5,weatherlink.com 1.10,2013-05-04 13:11:00,
2013-05-04 06:26:00,45.2,44.0,29.77,West,271,0.0,1.0,94,0.00,,,0.00,14,weatherlink.com 1.10,2013-05-04 13:26:00,
2013-05-04 06:41:00,45.6,44.0,29.78,West,271,0.0,3.0,94,0.00,,,0.00,23,weatherlink.com 1.10,2013-05-04 13:41:00,
2013-05-04 06:56:00,46.4,45.0,29.78,West,271,1.0,2.0,93,0.00,,,0.00,74,weatherlink.com 1.10,2013-05-04 13:56:00,
2013-05-04 07:11:00,48.5,47.0,29.78,West,271,0.0,1.0,94,0.00,,,0.00,132,weatherlink.com 1.10,2013-05-04 14:11:00,
2013-05-04 07:26:00,51.8,50.0,29.78,West,271,2.0,2.0,94,0.00,,,0.00,186,weatherlink.com 1.10,2013-05-04 14:26:00,
2013-05-04 07:41:00,54.8,52.0,29.77,West,271,0.0,2.0,90,0.00,,,0.00,241,weatherlink.com 1.10,2013-05-04 14:41:00,
2013-05-04 07:56:00,57.4,53.0,29.77,West,271,1.0,3.0,85,0.00,,,0.00,301,weatherlink.com 1.10,2013-05-04 14:56:00,
2013-05-04 08:11:00,58.0,51.0,29.77,West,271,2.0,3.0,78,0.00,,,0.00,357,weatherlink.com 1.10,2013-05-04 15:11:00,
2013-05-04 08:26:00,60.9,54.0,29.77,West,270,2.0,4.0,77,0.00,,,0.00,411,weatherlink.com 1.10,2013-05-04 15:26:00,
2013-05-04 08:42:00,62.2,53.0,29.76,West,265,0.0,4.0,73,0.00,,,0.00,464,weatherlink.com 1.10,2013-05-04 15:42:00,
2013-05-04 08:57:00,63.3,53.0,29.76,West,265,2.0,4.0,70,0.00,,,0.00,515,weatherlink.com 1.10,2013-05-04 15:57:00,
2013-05-04 09:12:00,60.2,52.0,29.75,SSE,155,3.0,7.0,73,0.00,,,0.00,564,weatherlink.com 1.10,2013-05-04 16:12:00,
2013-05-04 09:27:00,62.4,53.0,29.75,SSE,167,4.0,6.0,72,0.00,,,0.00,608,weatherlink.com 1.10,2013-05-04 16:27:00,
2013-05-04 09:42:00,65.9,54.0,29.75,South,170,3.0,4.0,66,0.00,,,0.00,654,weatherlink.com 1.10,2013-05-04 16:42:00,
2013-05-04 09:57:00,68.4,54.0,29.76,South,170,2.0,4.0,61,0.00,,,0.00,698,weatherlink.com 1.10,2013-05-04 16:57:00,
2013-05-04 10:12:00,69.2,54.0,29.76,South,170,3.0,4.0,59,0.00,,,0.00,735,weatherlink.com 1.10,2013-05-04 17:12:00,
2013-05-04 10:27:00,68.3,54.0,29.76,South,170,2.0,5.0,61,0.00,,,0.00,773,weatherlink.com 1.10,2013-05-04 17:27:00,
2013-05-04 10:42:00,68.1,54.0,29.76,South,172,5.0,6.0,62,0.00,,,0.00,809,weatherlink.com 1.10,2013-05-04 17:42:00,
2013-05-04 10:57:00,67.1,55.0,29.75,South,175,3.0,6.0,65,0.00,,,0.00,838,weatherlink.com 1.10,2013-05-04 17:57:00,
2013-05-04 11:12:00,66.0,55.0,29.75,South,175,2.0,7.0,67,0.00,,,0.00,868,weatherlink.com 1.10,2013-05-04 18:12:00,
2013-05-04 11:27:00,66.0,55.0,29.75,South,189,5.0,7.0,67,0.00,,,0.00,893,weatherlink.com 1.10,2013-05-04 18:27:00,
2013-05-04 11:42:00,65.4,55.0,29.75,SSE,148,3.0,8.0,68,0.00,,,0.00,916,weatherlink.com 1.10,2013-05-04 18:42:00,
2013-05-04 11:58:00,65.1,55.0,29.74,South,182,4.0,8.0,69,0.00,,,0.00,928,weatherlink.com 1.10,2013-05-04 18:58:00,
2013-05-04 12:13:00,65.1,55.0,29.73,SSE,162,5.0,8.0,69,0.00,,,0.00,944,weatherlink.com 1.10,2013-05-04 19:13:00,
2013-05-04 12:28:00,66.5,56.0,29.73,South,185,5.0,8.0,69,0.00,,,0.00,954,weatherlink.com 1.10,2013-05-04 19:28:00,
2013-05-04 12:43:00,65.9,55.0,29.72,South,170,3.0,7.0,67,0.00,,,0.00,958,weatherlink.com 1.10,2013-05-04 19:43:00,
2013-05-04 12:58:00,66.6,54.0,29.71,SSE,155,6.0,7.0,64,0.00,,,0.00,960,weatherlink.com 1.10,2013-05-04 19:58:00,
2013-05-04 13:13:00,65.8,55.0,29.71,South,176,9.0,10.0,68,0.00,,,0.00,958,weatherlink.com 1.10,2013-05-04 20:13:00,
2013-05-04 13:28:00,65.9,55.0,29.71,South,189,9.0,10.0,69,0.00,,,0.00,953,weatherlink.com 1.10,2013-05-04 20:28:00,
2013-05-04 13:43:00,64.5,55.0,29.70,South,190,4.0,10.0,71,0.00,,,0.00,944,weatherlink.com 1.10,2013-05-04 20:43:00,
2013-05-04 13:58:00,64.7,55.0,29.70,South,182,6.0,9.0,72,0.00,,,0.00,940,weatherlink.com 1.10,2013-05-04 20:58:00,
2013-05-04 14:13:00,64.6,55.0,29.69,SE,141,7.0,8.0,71,0.00,,,0.00,918,weatherlink.com 1.10,2013-05-04 21:13:00,
2013-05-04 14:28:00,63.7,55.0,29.68,South,185,6.0,10.0,74,0.00,,,0.00,900,weatherlink.com 1.10,2013-05-04 21:28:00,
2013-05-04 14:43:00,63.7,55.0,29.68,SSE,167,6.0,9.0,74,0.00,,,0.00,875,weatherlink.com 1.10,2013-05-04 21:43:00,
2013-05-04 14:58:00,62.6,55.0,29.68,SSE,161,4.0,10.0,76,0.00,,,0.00,851,weatherlink.com 1.10,2013-05-04 21:58:00,
2013-05-04 15:13:00,62.7,55.0,29.68,South,182,6.0,10.0,75,0.00,,,0.00,816,weatherlink.com 1.10,2013-05-04 22:13:00,
2013-05-04 15:28:00,61.3,54.0,29.67,South,188,8.0,9.0,76,0.00,,,0.00,788,weatherlink.com 1.10,2013-05-04 22:28:00,
2013-05-04 15:43:00,61.7,54.0,29.67,South,188,6.0,9.0,77,0.00,,,0.00,751,weatherlink.com 1.10,2013-05-04 22:43:00,
2013-05-04 15:58:00,61.7,54.0,29.66,South,181,5.0,10.0,77,0.00,,,0.00,710,weatherlink.com 1.10,2013-05-04 22:58:00,
2013-05-04 16:13:00,61.4,54.0,29.66,South,175,9.0,12.0,77,0.00,,,0.00,668,weatherlink.com 1.10,2013-05-04 23:13:00,
2013-05-04 16:28:00,60.4,53.0,29.65,SSE,164,6.0,9.0,77,0.00,,,0.00,613,weatherlink.com 1.10,2013-05-04 23:28:00,
2013-05-04 16:43:00,60.0,53.0,29.65,SSE,151,7.0,9.0,78,0.00,,,0.00,673,weatherlink.com 1.10,2013-05-04 23:43:00,
2013-05-04 16:58:00,59.0,53.0,29.64,SSE,159,7.0,9.0,79,0.00,,,0.00,352,weatherlink.com 1.10,2013-05-04 23:58:00,
2013-05-04 17:13:00,58.8,53.0,29.64,SSE,163,9.0,12.0,81,0.00,,,0.00,508,weatherlink.com 1.10,2013-05-05 00:13:00,
2013-05-04 17:28:00,58.3,53.0,29.65,South,173,4.0,12.0,82,0.00,,,0.00,359,weatherlink.com 1.10,2013-05-05 00:28:00,
2013-05-04 17:43:00,57.6,53.0,29.64,South,180,5.0,12.0,84,0.00,,,0.00,230,weatherlink.com 1.10,2013-05-05 00:43:00,
2013-05-04 17:58:00,56.4,52.0,29.64,SSE,164,8.0,16.0,86,0.00,,,0.00,163,weatherlink.com 1.10,2013-05-05 00:58:00,
2013-05-04 18:13:00,56.7,53.0,29.63,SSE,154,8.0,18.0,87,0.00,,,0.00,299,weatherlink.com 1.10,2013-05-05 01:13:00,
2013-05-04 18:28:00,56.5,53.0,29.63,South,182,7.0,12.0,87,0.00,,,0.00,148,weatherlink.com 1.10,2013-05-05 01:28:00,
2013-05-04 18:43:00,55.7,52.0,29.63,South,186,6.0,10.0,88,0.00,,,0.00,105,weatherlink.com 1.10,2013-05-05 01:43:00,
2013-05-04 18:58:00,55.5,52.0,29.63,SSE,165,5.0,12.0,88,0.00,,,0.00,97,weatherlink.com 1.10,2013-05-05 01:58:00,
2013-05-04 19:13:00,55.1,52.0,29.63,South,182,6.0,19.0,89,0.00,,,0.00,83,weatherlink.com 1.10,2013-05-05 02:13:00,
2013-05-04 19:28:00,54.7,52.0,29.63,South,181,13.0,18.0,89,0.00,,,0.00,51,weatherlink.com 1.10,2013-05-05 02:28:00,
2013-05-04 19:43:00,54.1,51.0,29.62,SSW,192,13.0,21.0,90,0.00,,,0.00,30,weatherlink.com 1.10,2013-05-05 02:43:00,
2013-05-04 19:58:00,53.7,51.0,29.63,SSE,162,12.0,21.0,90,0.00,,,0.00,11,weatherlink.com 1.10,2013-05-05 02:58:00,
2013-05-04 20:13:00,53.5,51.0,29.63,South,190,15.0,17.0,91,0.00,,,0.00,0,weatherlink.com 1.10,2013-05-05 03:13:00,
2013-05-04 20:28:00,53.2,51.0,29.64,South,183,8.0,20.0,91,0.00,,,0.00,0,weatherlink.com 1.10,2013-05-05 03:28:00,
2013-05-04 20:43:00,53.2,51.0,29.64,South,190,13.0,17.0,92,0.00,,,0.00,0,weatherlink.com 1.10,2013-05-05 03:43:00,
2013-05-04 20:58:00,53.1,51.0,29.64,South,184,16.0,21.0,92,0.00,,,0.00,0,weatherlink.com 1.10,2013-05-05 03:58:00,
2013-05-04 21:13:00,53.0,51.0,29.65,SE,137,13.0,23.0,92,0.00,,,0.00,0,weatherlink.com 1.10,2013-05-05 04:13:00,
2013-05-04 21:28:00,52.9,51.0,29.65,South,185,8.0,22.0,92,0.00,,,0.00,0,weatherlink.com 1.10,2013-05-05 04:28:00,
2013-05-04 21:43:00,52.8,51.0,29.65,South,182,14.0,22.0,92,0.00,,,0.00,0,weatherlink.com 1.10,2013-05-05 04:43:00,
2013-05-04 21:58:00,52.7,51.0,29.65,South,173,9.0,21.0,93,0.00,,,0.00,0,weatherlink.com 1.10,2013-05-05 04:58:00,
2013-05-04 22:13:00,52.8,51.0,29.66,SSE,159,9.0,18.0,93,0.00,,,0.00,0,weatherlink.com 1.10,2013-05-05 05:13:00,
2013-05-04 22:28:00,52.8,51.0,29.66,South,183,15.0,15.0,93,0.00,,,0.00,0,weatherlink.com 1.10,2013-05-05 05:28:00,
2013-05-04 22:43:00,53.1,51.0,29.66,South,190,13.0,22.0,92,0.00,,,0.00,0,weatherlink.com 1.10,2013-05-05 05:43:00,
2013-05-04 22:58:00,53.2,51.0,29.67,SSW,192,7.0,20.0,92,0.00,,,0.00,0,weatherlink.com 1.10,2013-05-05 05:58:00,
2013-05-04 23:13:00,53.3,51.0,29.68,SSE,167,6.0,20.0,92,0.00,,,0.00,0,weatherlink.com 1.10,2013-05-05 06:13:00,
2013-05-04 23:28:00,53.5,51.0,29.68,South,177,10.0,17.0,91,0.00,,,0.00,0,weatherlink.com 1.10,2013-05-05 06:28:00,
2013-05-04 23:43:00,53.7,51.0,29.67,South,191,9.0,15.0,90,0.00,,,0.00,0,weatherlink.com 1.10,2013-05-05 06:43:00,
2013-05-04 23:58:00,53.8,51.0,29.68,SSE,159,5.0,15.0,90,0.00,,,0.00,0,weatherlink.com 1.10,2013-05-05 06:58:00,